Regional Weather Roundup
Issued by NWS New Orleans/Baton Rouge, LA

Home | Current Version | Previous Version | Text Only | Print | Product List | Glossary On
Versions: 1 2 3 4 5 6 7 8 9 10 11 12 13 14 15 16 17 18 19 20 21 22 23 24 25 26 27 28
000
ASUS44 KLIX 232311
RWRLIX
NEW ORLEANS REGIONAL WEATHER ROUNDUP
NATIONAL WEATHER SERVICE NEW ORLEANS LA
600 PM CDT SAT JUL 23 2016

NOTE: "FAIR" INDICATES FEW OR NO CLOUDS BELOW 12,000 FEET WITH NO
      SIGNIFICANT WEATHER AND/OR OBSTRUCTIONS TO VISIBILITY.
      SKY/WX - SKY CONDITION AND SIGNIFICANT WEATHER.
      TMP - AIR TEMPERATURE.     DP    - DEWPOINT TEMPERATURE.
      RH  - RELATIVE HUMIDITY.   PRES  - PRESSURE.
      HI  - HEAT INDEX.          WCI   - WIND CHILL INDEX.

*  THESE STATIONS ARE NOT NWS OR FAA STATIONS AND ARE NOT UNDER
   NWS QUALITY CONTROL.

LAZ038-040-048-061>063-065>067-069-240000-
SOUTHEAST LOUISIANA

CITY           SKY/WX    TMP DP  RH WIND       PRES   REMARKS
N.O. AUDUBON   NOT AVBL
N.O. INTL ARPT PTSUNNY   92  74  55 SW8       29.92F HX 101
N.O. LAKEFRONT MOSUNNY   90  75  61 SW9       29.93F HX 100
N.O. DOWNTOWN* NOT AVBL
RESERVE*         N/A     79  74  84 CALM      29.93F
SLIDELL        MOSUNNY   89  77  67 S9        29.93F HX 101
BATON ROUGE    CLOUDY    81  72  74 S9        29.93F
BOOTHVILLE     MOSUNNY   84  74  71 SW3       29.94F
BELLE CHASSE   MOSUNNY   88  77  69 VRB3      29.93F HX 100
BOGALUSA*      MOCLDY    87  75  67 SW6       29.94S HX  95
GALLIANO*      MOCLDY    91  77  64 SW9       29.94R HX 104
NEW ROADS*       N/A     87  77  72 S5        29.93R HX  99
GONZALES*      TSTM      76  75  97 W7        29.94F
HAMMOND*       MOSUNNY   88  70  55 SW8       29.93S
HOUMA*         MOSUNNY   88  79  74 SW6       29.95R HX 102
PORT FOURCHON* MOCLDY    88  75  66 SW7       29.94S HX  97

$$

MSZ070-080>082-240000-
SOUTHERN MISSISSIPPI

CITY           SKY/WX    TMP DP  RH WIND       PRES   REMARKS
MCCOMB         CLOUDY    88  76  67 W9        29.94S HX  99
GULFPORT       SUNNY     88  75  65 SE7       29.92F HX  97
BILOXI         MOSUNNY   88  76  67 S7        29.92F HX  99
PASCAGOULA     SUNNY     87  77  72 S6        29.94F HX  99
STENNIS ARPT*  MOSUNNY   88  72  58 S6        29.93F

$$

COASTAL OBSERVATIONS
LAKE AND NEARSHORE STATIONS

STATION/POSITION TIME  TEMP    WIND        PRES    WAVE
                       AIR SEA DIR/SP/G            HT/PER
                 (UTC) (F)     (DEG/KT/KT) (MB)    (FT/S)
PASCAGOULA       2200          180/  8/ 12   N/A
WAVELAND YACHT   2200      88                N/A
GRAND ISLE       2200      90                N/A
SOUTHWEST PASS   2200           80/  2/  3   N/A
NEW CANAL        2200      90                N/A
SHELL BEACH      2200      89                N/A

OFFSHORE STATIONS

STATION/POSITION TIME  TEMP    WIND        PRES    WAVE
                       AIR SEA DIR/SP/G            HT/PER
                 (UTC) (F)     (DEG/KT/KT) (MB)    (FT/S)
64 S DAUPHIN ISL 2200   85 89  180/  4/  6 1014.4

$$





USA.gov is the U.S. government's official web portal to all federal, state and local government web resources and services.